When you browse on this site, cookies collect data to enhance your experience and personalize the content and advertising you see.
Visit our Privacy Policy to learn more. By continuing to use the site, you agree to this use of cookies and data.
  • In Deutschland
  • Länderverzeichnis
  • Für 7 Tage
  • Wassertemperatur
  • Satellitenkarten
  • Wetterkarte
  • Widgets
  • user-avatar
    Anmelden

    Stündliche Wetter Kinshasa

    Heute, 17 November, Samstag

    Zeit Temperatur Niederschläge Wind Luftdruck Luftfeuchtigkeit
    00:00 +23°C° 0 mm 1 m/S 708 mmHg 92%
    01:00 +21°C° 0 mm 0 m/S 708 mmHg 93%
    02:00 +20°C° 0 mm 0 m/S 708 mmHg 94%
    03:00 +20°C° 0 mm 0 m/S 707 mmHg 94%
    04:00 +20°C° 0 mm 0 m/S 707 mmHg 95%
    05:00 +21°C° 0 mm 0 m/S 708 mmHg 92%
    06:00 +21°C° 0 mm 0 m/S 708 mmHg 89%
    07:00 +24°C° 0 mm 1 m/S 709 mmHg 86%
    08:00 +27°C° 0 mm 1 m/S 709 mmHg 75%
    09:00 +29°C° 0 mm 1 m/S 709 mmHg 65%
    10:00 +32°C° 0 mm 1 m/S 710 mmHg 54%
    11:00 +34°C° 0 mm 1 m/S 709 mmHg 49%
    12:00 +35°C° 0 mm 1 m/S 708 mmHg 44%
    13:00 +36°C° 0 mm 1 m/S 708 mmHg 39%
    14:00 +35°C° 0 mm 1 m/S 707 mmHg 42%
    15:00 +34°C° 0 mm 1 m/S 707 mmHg 45%
    16:00 +31°C° 0 mm 0 m/S 706 mmHg 48%
    17:00 +29°C° 0 mm 0 m/S 706 mmHg 52%
    18:00 +28°C° 0 mm 0 m/S 706 mmHg 57%
    19:00 +26°C° 0 mm 0 m/S 707 mmHg 62%
    20:00 +25°C° 0 mm 0 m/S 707 mmHg 64%
    21:00 +25°C° 0 mm 0 m/S 707 mmHg 66%
    22:00 +24°C° 0 mm 0 m/S 707 mmHg 68%
    23:00 +24°C° 0 mm 0 m/S 707 mmHg 70%

    Morgen, 18 November, Sonntag

    Zeit Temperatur Niederschläge Wind Luftdruck Luftfeuchtigkeit
    00:00 +23°C° 0 mm 0 m/S 707 mmHg 72%
    01:00 +23°C° 0 mm 0 m/S 707 mmHg 75%
    02:00 +22°C° 0 mm 0 m/S 707 mmHg 76%
    03:00 +22°C° 0 mm 0 m/S 706 mmHg 78%
    04:00 +22°C° 0 mm 0 m/S 706 mmHg 79%
    05:00 +22°C° 0.2 mm 0 m/S 707 mmHg 80%
    06:00 +22°C° 0.2 mm 0 m/S 707 mmHg 81%
    07:00 +25°C° 0.2 mm 1 m/S 708 mmHg 83%
    08:00 +26°C° 0 mm 1 m/S 708 mmHg 75%
    09:00 +28°C° 0 mm 1 m/S 708 mmHg 68%
    10:00 +30°C° 0 mm 2 m/S 709 mmHg 61%
    11:00 +32°C° 0 mm 1 m/S 708 mmHg 55%
    12:00 +34°C° 0 mm 1 m/S 708 mmHg 49%
    13:00 +34°C° 0 mm 0 m/S 707 mmHg 43%
    14:00 +33°C° 0 mm 0 m/S 706 mmHg 45%
    15:00 +34°C° 0 mm 1 m/S 706 mmHg 47%
    16:00 +33°C° 0 mm 1 m/S 705 mmHg 48%
    17:00 +31°C° 0 mm 1 m/S 705 mmHg 54%
    18:00 +27°C° 0 mm 0 m/S 705 mmHg 60%
    19:00 +26°C° 0 mm 0 m/S 706 mmHg 66%
    20:00 +25°C° 0.1 mm 0 m/S 706 mmHg 69%
    21:00 +25°C° 0.1 mm 0 m/S 707 mmHg 71%
    22:00 +24°C° 0.1 mm 0 m/S 707 mmHg 73%
    23:00 +26°C° 0 mm 1 m/S 707 mmHg 76%

    übermorgen, 19 November, Montag

    Zeit Temperatur Niederschläge Wind Luftdruck Luftfeuchtigkeit
    00:00 +25°C° 0 mm 1 m/S 706 mmHg 79%
    01:00 +25°C° 0 mm 1 m/S 706 mmHg 82%
    02:00 +24°C° 0.6 mm 1 m/S 706 mmHg 86%
    03:00 +23°C° 0.6 mm 1 m/S 706 mmHg 91%
    04:00 +23°C° 0.6 mm 1 m/S 705 mmHg 96%
    05:00 +23°C° 0.1 mm 2 m/S 706 mmHg 95%
    06:00 +23°C° 0.1 mm 2 m/S 707 mmHg 94%
    07:00 +24°C° 0.1 mm 2 m/S 707 mmHg 93%
    08:00 +26°C° 0.4 mm 2 m/S 708 mmHg 84%
    09:00 +28°C° 0.4 mm 2 m/S 708 mmHg 74%
    10:00 +30°C° 0.4 mm 2 m/S 708 mmHg 65%
    11:00 +32°C° 0.7 mm 2 m/S 708 mmHg 59%
    12:00 +33°C° 0.7 mm 1 m/S 707 mmHg 53%
    13:00 +34°C° 0.7 mm 1 m/S 706 mmHg 46%
    14:00 +34°C° 0 mm 1 m/S 706 mmHg 47%
    15:00 +33°C° 0 mm 1 m/S 705 mmHg 48%
    16:00 +33°C° 0 mm 1 m/S 704 mmHg 48%
    17:00 +31°C° 0 mm 1 m/S 705 mmHg 54%
    18:00 +29°C° 0 mm 1 m/S 705 mmHg 60%
    19:00 +27°C° 0 mm 1 m/S 705 mmHg 66%
    20:00 +26°C° 0.1 mm 1 m/S 705 mmHg 71%
    21:00 +26°C° 0.1 mm 1 m/S 706 mmHg 75%
    22:00 +25°C° 0.1 mm 1 m/S 706 mmHg 80%
    23:00 +25°C° 0 mm 1 m/S 706 mmHg 81%

    20 November, Dienstag

    Zeit Temperatur Niederschläge Wind Luftdruck Luftfeuchtigkeit
    00:00 +24°C° 0 mm 1 m/S 706 mmHg 83%
    01:00 +24°C° 0 mm 1 m/S 705 mmHg 85%
    02:00 +23°C° 0.1 mm 1 m/S 705 mmHg 88%
    03:00 +23°C° 0.1 mm 1 m/S 705 mmHg 90%
    04:00 +23°C° 0.1 mm 1 m/S 705 mmHg 92%
    05:00 +23°C° 0 mm 1 m/S 706 mmHg 91%
    06:00 +23°C° 0 mm 1 m/S 707 mmHg 90%
    07:00 +24°C° 0 mm 1 m/S 707 mmHg 89%
    08:00 +26°C° 0 mm 1 m/S 708 mmHg 80%
    09:00 +28°C° 0 mm 2 m/S 708 mmHg 70%
    10:00 +30°C° 0 mm 2 m/S 709 mmHg 61%
    11:00 +32°C° 0 mm 1 m/S 708 mmHg 55%
    12:00 +34°C° 0 mm 1 m/S 707 mmHg 49%
    13:00 +36°C° 0 mm 1 m/S 707 mmHg 44%
    14:00 +35°C° 0 mm 1 m/S 706 mmHg 45%
    15:00 +32°C° 0 mm 0 m/S 706 mmHg 47%
    16:00 +31°C° 0 mm 0 m/S 705 mmHg 48%
    17:00 +29°C° 0 mm 0 m/S 705 mmHg 54%
    18:00 +30°C° 0 mm 1 m/S 706 mmHg 59%
    19:00 +28°C° 0 mm 1 m/S 706 mmHg 65%
    20:00 +27°C° 0 mm 1 m/S 706 mmHg 68%
    21:00 +26°C° 0 mm 1 m/S 706 mmHg 71%
    22:00 +26°C° 0 mm 1 m/S 707 mmHg 74%
    23:00 +25°C° 0.1 mm 1 m/S 706 mmHg 78%

    21 November, Mittwoch

    Zeit Temperatur Niederschläge Wind Luftdruck Luftfeuchtigkeit
    00:00 +25°C° 0.1 mm 1 m/S 706 mmHg 81%
    01:00 +24°C° 0.1 mm 1 m/S 706 mmHg 85%
    02:00 +24°C° 0.3 mm 1 m/S 706 mmHg 87%
    03:00 +23°C° 0.3 mm 1 m/S 706 mmHg 90%
    04:00 +23°C° 0.3 mm 1 m/S 706 mmHg 93%
    05:00 +23°C° 0.1 mm 1 m/S 706 mmHg 92%
    06:00 +24°C° 0.1 mm 2 m/S 707 mmHg 91%
    07:00 +24°C° 0.1 mm 2 m/S 707 mmHg 91%
    08:00 +27°C° 0 mm 2 m/S 708 mmHg 81%
    09:00 +29°C° 0 mm 2 m/S 708 mmHg 71%
    10:00 +31°C° 0 mm 2 m/S 708 mmHg 61%
    11:00 +34°C° 0 mm 2 m/S 708 mmHg 55%
    12:00 +34°C° 0 mm 1 m/S 707 mmHg 49%
    13:00 +36°C° 0 mm 1 m/S 706 mmHg 43%
    14:00 +35°C° 0 mm 1 m/S 706 mmHg 45%
    15:00 +34°C° 0 mm 1 m/S 705 mmHg 47%
    16:00 +32°C° 0 mm 0 m/S 705 mmHg 48%
    17:00 +32°C° 0 mm 1 m/S 705 mmHg 55%
    18:00 +30°C° 0 mm 1 m/S 705 mmHg 61%
    19:00 +28°C° 0 mm 1 m/S 706 mmHg 68%
    20:00 +27°C° 0.1 mm 1 m/S 706 mmHg 74%
    21:00 +26°C° 0.1 mm 1 m/S 706 mmHg 79%
    22:00 +25°C° 0.1 mm 1 m/S 706 mmHg 85%
    23:00 +25°C° 0 mm 1 m/S 706 mmHg 87%

    22 November, Donnerstag

    Zeit Temperatur Niederschläge Wind Luftdruck Luftfeuchtigkeit
    00:00 +24°C° 0 mm 1 m/S 706 mmHg 88%
    01:00 +24°C° 0 mm 1 m/S 706 mmHg 90%
    02:00 +24°C° 0.1 mm 1 m/S 705 mmHg 92%
    03:00 +23°C° 0.1 mm 1 m/S 705 mmHg 93%
    04:00 +23°C° 0.1 mm 1 m/S 705 mmHg 95%
    05:00 +23°C° 0 mm 1 m/S 706 mmHg 94%
    06:00 +24°C° 0 mm 1 m/S 707 mmHg 92%
    07:00 +24°C° 0 mm 2 m/S 707 mmHg 90%
    08:00 +26°C° 0 mm 2 m/S 708 mmHg 81%
    09:00 +28°C° 0 mm 2 m/S 708 mmHg 72%
    10:00 +31°C° 0 mm 2 m/S 708 mmHg 62%
    11:00 +31°C° 0.1 mm 2 m/S 707 mmHg 60%
    12:00 +32°C° 0.1 mm 2 m/S 706 mmHg 57%
    13:00 +34°C° 0.1 mm 2 m/S 706 mmHg 54%
    14:00 +32°C° 0.6 mm 1 m/S 705 mmHg 58%
    15:00 +32°C° 0.6 mm 1 m/S 705 mmHg 62%
    16:00 +31°C° 0.6 mm 1 m/S 705 mmHg 66%
    17:00 +29°C° 0.3 mm 1 m/S 705 mmHg 73%
    18:00 +27°C° 0.3 mm 1 m/S 705 mmHg 81%
    19:00 +25°C° 0.3 mm 1 m/S 706 mmHg 88%
    20:00 +25°C° 0 mm 1 m/S 706 mmHg 89%
    21:00 +24°C° 0 mm 1 m/S 706 mmHg 91%
    22:00 +24°C° 0 mm 1 m/S 706 mmHg 92%
    23:00 +24°C° 0 mm 1 m/S 706 mmHg 93%
    Mehr zeigen